Weather History for Defiance, OH

Change the Weather History Date:

Wednesday, January 8, 2014

  Actual Average Record
Temperature  
Mean Temperature 8 °F -  
Max Temperature 17 °F 29 °F 62 °F (1989)
Min Temperature -2 °F 12 °F -14 °F (1968)
Degree Days  
Heating Degree Days 58    
Moisture  
Dew Point 3 °F    
Average Humidity 73    
Maximum Humidity 84    
Minimum Humidity 65    
Precipitation  
Precipitation 0.00 in - - ()
Sea Level Pressure  
Sea Level Pressure 30.45 in    
Wind  
Wind Speed 2 mph (SW)    
Max Wind Speed 8 mph    
Max Gust Speed -    
Visibility 10 miles    
Events      
Averages and records for this station are not official NWS values.
T = Trace of Precipitation, MM = Missing Value Source: NWS Daily Summary

Daily Weather History Graph

Daily Weather History Graph

Search for Another Location

Airport:

Trip Planner

Search our weather history database for the weather conditions in past years. The results will help you decide how hot, cold, wet, or windy it might be!

Date:

Astronomy

Jan. 08, 2014 Rise Set
Actual Time 8:03 AM EST 5:25 PM EST
Civil Twilight 7:32 AM EST 5:56 PM EST
Nautical Twilight 6:58 AM EST 6:31 PM EST
Astronomical Twilight 6:24 AM EST 7:04 PM EST
Moon 12:19 PM EST (1/8) 1:05 AM EST (1/8)
Length of Visible Light 10h 24m
Length of Day
9h 22m
First Quarter, 56% of the Moon is Illuminated
Jan 8
First Quarter
Jan 15
Full
Jan 24
Last Quarter
Jan 30
New
Feb 6
First Quarter

Hourly Weather History & Observations

Time (EST) Temp. Windchill Dew Point Humidity Pressure Visibility Wind Dir Wind Speed Gust Speed Precip Events Conditions
12:53 AM 1.9 °F -7.6 °F -4.0 °F 76% 30.40 in 10.0 mi SSW 4.6 mph - N/A   Clear
1:53 AM -2.0 °F - -6.0 °F 83% 30.39 in 10.0 mi Calm Calm - N/A   Clear
2:53 AM -0.0 °F - -4.0 °F 83% 30.41 in 10.0 mi Calm Calm - N/A   Overcast
3:53 AM 3.0 °F - -2.0 °F 80% 30.42 in 10.0 mi Calm Calm - N/A   Overcast
4:53 AM 6.1 °F - -0.0 °F 76% 30.40 in 10.0 mi Calm Calm - N/A   Overcast
5:53 AM 8.1 °F - 1.0 °F 73% 30.39 in 10.0 mi Calm Calm - N/A   Overcast
6:53 AM 6.1 °F - 1.0 °F 80% 30.40 in 10.0 mi Calm Calm - N/A   Overcast
7:53 AM 3.9 °F - -2.0 °F 76% 30.41 in 10.0 mi Calm Calm - N/A   Clear
8:53 AM 3.0 °F - -0.9 °F 84% 30.43 in 10.0 mi Calm Calm - N/A   Clear
9:53 AM 12.0 °F 0.5 °F 3.9 °F 70% 30.45 in 10.0 mi SSW 8.1 mph - N/A   Clear
10:53 AM 14.0 °F 2.9 °F 5.0 °F 67% 30.46 in 10.0 mi SSW 8.1 mph - N/A   Clear
11:53 AM 14.0 °F 5.1 °F 5.0 °F 67% 30.44 in 10.0 mi SSW 5.8 mph - N/A   Scattered Clouds
12:53 PM 15.1 °F 7.7 °F 6.1 °F 68% 30.41 in 10.0 mi SW 4.6 mph - N/A   Mostly Cloudy
1:53 PM 16.0 °F 10.4 °F 6.1 °F 65% 30.41 in 10.0 mi SW 3.5 mph - N/A   Partly Cloudy
2:53 PM 17.1 °F 11.7 °F 7.0 °F 65% 30.41 in 10.0 mi SW 3.5 mph - N/A   Partly Cloudy
3:53 PM 16.0 °F 6.3 °F 7.0 °F 68% 30.43 in 10.0 mi SW 6.9 mph - N/A   Clear
4:53 PM 16.0 °F - 7.0 °F 68% 30.45 in 10.0 mi Calm Calm - N/A   Partly Cloudy
5:53 PM 15.1 °F - 8.1 °F 74% 30.46 in 10.0 mi Calm Calm - N/A   Scattered Clouds
6:53 PM 16.0 °F - 8.1 °F 71% 30.48 in 10.0 mi Calm Calm - N/A   Overcast
7:53 PM 15.1 °F - 8.1 °F 74% 30.50 in 10.0 mi Calm Calm - N/A   Overcast
8:53 PM 16.0 °F - 8.1 °F 71% 30.51 in 10.0 mi Calm Calm - N/A   Overcast
9:53 PM 16.0 °F - 7.0 °F 68% 30.53 in 10.0 mi Calm Calm - N/A   Scattered Clouds
10:53 PM 14.0 °F - 6.1 °F 71% 30.54 in 10.0 mi Calm Calm - N/A   Clear
11:53 PM 12.0 °F - 5.0 °F 73% 30.55 in 10.0 mi Calm Calm - N/A   Clear